Location: Observatoire
(46.1952°N, 5.3391°E)
Time: 13:02:44
(UTC+02:00)

CUTE 1.7 + AOD 2 - Pass Details

Date: 27 April 2024
Orbit: 569 x 586 km, 97.8° (Epoch: 25 May)

Event Time Altitude Azimuth Distance (km) Brightness Sun altitude
Rises 05:39:07 0° 8° (N) 2,786 ? -8.9°
Reaches altitude 10° 05:41:18 10° 4° (N) 1,882 ? -8.6°
Maximum altitude 05:45:16 53° 287° (WNW) 707 ? -8.0°
Drops below altitude 10° 05:49:12 10° 211° (SSW) 1,865 ? -7.4°
Enters shadow 05:50:16 - 209° (SSW) 2,303 ? -7.2°
